This is the latest recevied weather packets stored in our database for station/object K5MGY. If no packets are shown the sender has not sent any weather packets the latest 10 day(s).
| Time | Temp. | Humidity | Pressure | Rain* | Wind** | Luminosity | Snow |
|---|---|---|---|---|---|---|---|
| 1777757477 | 25.56° C | 35% | 1043.5 hPa | 0 mm | - | 68 W/m² | - |
| 1777757176 | 25.56° C | 37% | 1043.3 hPa | 0 mm | - | 59 W/m² | - |
| 1777756874 | 25.56° C | 35% | 1043.4 hPa | 0 mm | - | 64 W/m² | - |
| 1777756568 | 25.56° C | 35% | 1043.5 hPa | 0 mm | - | 94 W/m² | - |
| 1777756266 | 25.56° C | 34% | 1043.6 hPa | 0 mm | - | 150 W/m² | - |
| 1777755963 | 25.56° C | 32% | 1043.9 hPa | 0 mm | - | 65 W/m² | - |
| 1777755660 | 25.56° C | 35% | 1043.8 hPa | 0 mm | - | 571 W/m² | - |
| 1777755356 | 25.56° C | 35% | 1043.8 hPa | 0 mm | - | 527 W/m² | - |
| 1777755053 | 25.56° C | 34% | 1044.1 hPa | 0 mm | - | 121 W/m² | - |
| 1777754750 | 25.56° C | 34% | 1044.1 hPa | 0 mm | - | 112 W/m² | - |
| 1777754448 | 25.56° C | 31% | 1043.9 hPa | 0 mm | - | 52 W/m² | - |
| 1777754145 | 25.56° C | 35% | 1044 hPa | 0 mm | - | 61 W/m² | - |
| 1777753842 | 26.11° C | 33% | 1044.1 hPa | 0 mm | - | 53 W/m² | - |
| 1777753538 | 26.11° C | 34% | 1044.2 hPa | 0 mm | - | 62 W/m² | - |
| 1777753236 | 25.56° C | 34% | 1044.1 hPa | 0 mm | - | 131 W/m² | - |
| 1777752932 | 25.56° C | 39% | 1044.1 hPa | 0 mm | - | 183 W/m² | - |
| 1777752629 | 25.56° C | 30% | 1044.3 hPa | 0 mm | - | 657 W/m² | - |
| 1777752324 | 25.56° C | 33% | 1044.4 hPa | 0 mm | - | 672 W/m² | - |
| 1777752023 | 26.11° C | 33% | 1044.3 hPa | 0 mm | - | 680 W/m² | - |
| 1777751720 | 26.11° C | 38% | 1044.3 hPa | 0 mm | - | 688 W/m² | - |
| 1777751415 | 26.11° C | 32% | 1044.6 hPa | 0 mm | - | 695 W/m² | - |
| 1777751113 | 26.11° C | 34% | 1044.6 hPa | 0 mm | - | 695 W/m² | - |
| 1777750809 | 26.11° C | 34% | 1044.6 hPa | 0 mm | - | 709 W/m² | - |
| 1777750506 | 25.56° C | 33% | 1044.6 hPa | 0 mm | - | 712 W/m² | - |
| 1777750202 | 25.56° C | 36% | 1044.7 hPa | 0 mm | - | 716 W/m² | - |
* Rain latest hour (hover to see other rain measurements)
** Current wind speed in m/s (hover to see current wind gust speed)